Regional Weather Roundup
Issued by NWS Cleveland, OH

Home | Current Version | Previous Version | Graphics & Text | Print | Product List | Glossary On
Versions: 1 2 3 4 5 6 7 8 9 10 11 12 13 14 15 16 17 18 19 20 21 22 23 24 25 26 27 28 29 30 31 32 33 34 35 36 37 38 39 40 41 42 43 44 45 46 47 48 49 50
000
ASUS41 KCLE 031100
RWRCLE
OHIO REGIONAL WEATHER ROUNDUP
NATIONAL WEATHER SERVICE WILMINGTON, OH
600 AM EST TUE MAR 03 2015

NOTE: "FAIR" INDICATES FEW OR NO CLOUDS BELOW 12,000 FEET WITH NO
SIGNIFICANT WEATHER AND/OR OBSTRUCTIONS TO VISIBILITY.

OHZ001>008-015>018-024>027-034-035-043-044-031200-
   NORTHWEST OHIO

CITY           SKY/WX    TMP DP  RH WIND       PRES   REMARKS
DEFIANCE       CLOUDY    24  15  68 SE6       30.15F WCI  17
FINDLAY        CLOUDY    24  13  62 SE10      30.16F WCI  14
TOLEDO EXPRESS CLOUDY    22  14  71 E5        30.18F WCI  16
TOLEDO EXEC    CLOUDY    22  14  71 SE8       30.21F WCI  12
LIMA           CLOUDY    25  14  63 SE10      30.13F WCI  15
$$

OHZ009>014-019>023-028>033-038-089-031200-
   NORTHEAST OHIO

CITY           SKY/WX    TMP DP  RH WIND       PRES   REMARKS
CLE-HOPKINS    CLOUDY    24  12  60 SE12      30.24F WCI  13
CLE-LAKEFRONT  CLOUDY    25  11  55 SE14      30.22F WCI  13
CUY CO. ARPT   NOT AVBL
LORAIN-ELYRIA  CLOUDY    22  12  65 SE9       30.21F WCI  12
ASHTABULA      CLOUDY    17   8  67 SE8       30.28F WCI   7
AKRON-CANTON   CLOUDY    22  12  65 E9        30.23F WCI  12
WOOSTER        NOT AVBL
MANSFIELD      CLOUDY    22  12  65 SE10      30.17F WCI  11
YOUNGSTOWN     CLOUDY    19  10  68 E8        30.26F WCI   9
$$

OHZ042-051>053-060>062-070>072-077>081-031200-
  SOUTHWEST OHIO

CITY           SKY/WX    TMP DP  RH WIND       PRES   REMARKS
CINC-COVINGTON CLOUDY    28  17  63 E8        30.12F WCI  20
CINC-LUNKEN    CLOUDY    27  19  72 NE5       30.16F WCI  22
HAMILTON       MOCLDY    28  18  66 E7        30.14F WCI  21
DAYTON         FRZ DRZL  27  18  69 SE15      30.11F WCI  15
WRIGHT-PAT AFB MOCLDY    26  16  65 SE12      30.12F WCI  15
DAYTON GENERAL CLOUDY    26  16  65 E14       30.11F WCI  14
WILMINGTON     CLOUDY    23  16  74 E10       30.14F WCI  12
$$

OHZ036-037-039>041-045>050-054>059-063>069-073>076-082>088-031200-
  CENTRAL AND SOUTHEAST OHIO

CITY           SKY/WX    TMP DP  RH WIND       PRES   REMARKS
COLUMBUS       CLOUDY    25  15  66 E8        30.21F WCI  16
OSU AIRPORT    CLOUDY    26  14  60 SE8       30.19F WCI  18
BOLTON FIELD   NOT AVBL
RICKENBACK AFB NOT AVBL
NEWARK         CLOUDY    24  15  68 E5        30.23F WCI  18
MARION         CLOUDY    24  14  65 S12       30.19F WCI  13
LANCASTER      CLOUDY    25  17  72 E3        30.22F
ZANESVILLE     CLOUDY    25  15  66 CALM      30.25R
NEW PHILLY     CLOUDY    25  13  60 E6        30.25F WCI  18
$$



USA.gov is the U.S. government's official web portal to all federal, state and local government web resources and services.